Copper Harbor, MI

8:33 PM EDT on April 29, 2017 (GMT -0400)
Copper Harbor

Weather History for KP59 - September, 2013

Change the Weather History Date:

Friday, September 27, 2013

  Actual Average Record
Temperature  
Mean Temperature 63 °F -  
Max Temperature 72 °F 55 °F 79 °F (2014)
Min Temperature 55 °F 43 °F 32 °F (2000)
Degree Days  
Heating Degree Days 2    
Growing Degree Days 13 (Base 50)    
Moisture  
Dew Point 53 °F    
Average Humidity 68    
Maximum Humidity 90    
Minimum Humidity 47    
Precipitation  
Precipitation 0.00 in - - ()
Sea Level Pressure  
Sea Level Pressure 30.01 in    
Wind  
Wind Speed 7 mph (SW)    
Max Wind Speed 15 mph    
Max Gust Speed 25 mph    
Averages and records for this station are not official NWS values.
T = Trace of Precipitation, MM = Missing Value Source: NWS Daily Summary

Daily Weather History Graph

Daily Weather History Graph

Search for Another Location

Airport or City:

Trip Planner

Search our weather history database for the weather conditions in past years. The results will help you decide how hot, cold, wet, or windy it might be!

Date:

Astronomy

Sep. 27, 2013 Rise Set
Actual Time 7:45 AM EDT 7:38 PM EDT
Civil Twilight 7:14 AM EDT 8:09 PM EDT
Nautical Twilight 6:39 AM EDT 8:44 PM EDT
Astronomical Twilight 6:02 AM EDT 9:21 PM EDT
Moon 12:18 AM EDT (9/27) 3:38 PM EDT (9/27)
Length of Visible Light 12h 54m
Length of Day
11h 53m
Last Quarter, 45% of the Moon is Illuminated
Sep 27
Last Quarter
Oct 4
New
Oct 11
First Quarter
Oct 18
Full
Oct 26
Last Quarter

Hourly Weather History & Observations

Time (EDT) Temp. Dew Point Humidity Pressure Visibility Wind Dir Wind Speed Gust Speed Precip Events Conditions
12:51 AM 59.0 °F 51.1 °F 75% 30.04 in - Calm Calm - N/A   Unknown
1:51 AM 57.0 °F 51.1 °F 81% 30.05 in - Calm Calm - N/A   Unknown
2:51 AM 57.0 °F 52.0 °F 83% 30.06 in - Calm Calm - N/A   Unknown
3:51 AM 57.0 °F 52.0 °F 83% 30.06 in - Calm Calm - N/A   Unknown
4:51 AM 55.9 °F 53.1 °F 90% 30.04 in - WSW 12.7 mph - N/A   Unknown
5:51 AM 55.9 °F 52.0 °F 87% 30.05 in - WSW 10.4 mph 18.4 mph N/A   Unknown
6:51 AM 57.0 °F 51.1 °F 81% 30.05 in - WSW 10.4 mph - N/A   Unknown
7:51 AM 57.0 °F 51.1 °F 81% 30.06 in - WSW 11.5 mph 19.6 mph N/A   Unknown
8:51 AM 59.0 °F 52.0 °F 78% 30.06 in - WSW 10.4 mph 19.6 mph N/A   Unknown
9:51 AM 61.0 °F 53.1 °F 75% 30.05 in - WSW 10.4 mph 17.3 mph N/A   Unknown
10:51 AM 64.0 °F 52.0 °F 65% 30.05 in - SW 8.1 mph 18.4 mph N/A   Unknown
11:51 AM 66.9 °F 50.0 °F 54% 30.04 in - SW 10.4 mph 20.7 mph N/A   Unknown
12:51 PM 68.0 °F 51.1 °F 55% 30.04 in - WSW 11.5 mph 20.7 mph N/A   Unknown
1:51 PM 70.0 °F 52.0 °F 53% 30.03 in - SW 12.7 mph 19.6 mph N/A   Unknown
2:51 PM 71.1 °F 54.0 °F 55% 30.01 in - SSW 6.9 mph - N/A   Unknown
3:51 PM 71.1 °F 55.0 °F 57% 29.99 in - SSW 9.2 mph 18.4 mph N/A   Unknown
4:51 PM 69.1 °F 54.0 °F 58% 29.95 in - SSW 11.5 mph 19.6 mph N/A   Unknown
5:51 PM 70.0 °F 51.1 °F 51% 29.95 in - SSW 10.4 mph 24.2 mph N/A   Unknown
6:51 PM 71.1 °F 50.0 °F 47% 29.94 in - SSW 15.0 mph 23.0 mph N/A   Unknown
7:51 PM 70.0 °F 51.1 °F 51% 29.95 in - SSW 11.5 mph 20.7 mph N/A   Unknown
8:51 PM 66.0 °F 55.9 °F 70% 29.94 in - SSW 12.7 mph 23.0 mph N/A   Unknown
9:51 PM 66.0 °F 55.9 °F 70% 29.96 in - SSW 9.2 mph - N/A   Unknown
10:51 PM 66.0 °F 55.9 °F 70% 29.96 in - SW 9.2 mph 21.9 mph N/A   Unknown
11:51 PM 66.0 °F 54.0 °F 65% 29.95 in - SW 11.5 mph 25.3 mph N/A   Unknown